Regional Weather Roundup
Issued by NWS

Home | Current Version | Previous Version | Text Only | Print | Product List | Glossary Off
Versions: 1 2 3 4 5 6 7 8 9 10 11 12 13 14 15 16 17 18 19 20 21 22 23 24 25 26 27 28 29 30 31 32 33 34 35 36 37 38 39 40 41 42 43 44 45 46 47 48 49 50

000
ASUS43 KFSD 170302
RWRSD

WEATHER ROUNDUP FOR SOUTH DAKOTA
NATIONAL WEATHER SERVICE SIOUX FALLS SD
1000 PM CDT WED APR 16 2014

NOTE: "FAIR" INDICATES FEW OR NO CLOUDS BELOW 12,000 FEET WITH NO
SIGNIFICANT WEATHER AND/OR OBSTRUCTIONS TO VISIBILITY.


SDZ001>005-009-010-012>017-170400-
NORTHWEST AND NORTH CENTRAL SOUTH DAKOTA

CITY           SKY/WX    TMP DP  RH WIND       PRES   REMARKS
FAITH            N/A     32  23  69 NE13      30.18R WCI  22
MOBRIDGE       PTCLDY    25  18  74 NE7       30.19R WCI  17
$$

SDZ012>016-024>037-041>051-057-063-072>074-170400-
SOUTHWEST AND SOUTH CENTRAL SOUTH DAKOTA

CITY           SKY/WX    TMP DP  RH WIND       PRES   REMARKS
RAPID CTY ARPT CLOUDY    33  25  72 E9        30.16R WCI  25
PIERRE         MOCLDY    29  22  75 NE6       30.20R WCI  23
CUSTER         LGT SNOW  27  24  89 E6        30.07R FOG     WCI  20
ELLSWORTH AFB  CLOUDY    32  25  74 E8        30.15R WCI  25
PHILIP         CLOUDY    35  24  64 E9        30.19R WCI  28
PINE RIDGE     PTCLDY    30  27  88 E7        30.13R WCI  23
WINNER         CLOUDY    33  23  66 N13       30.18R WCI  24
$$

SDZ004>011-016>023-039-040-170400-
NORTHEAST SOUTH DAKOTA

CITY           SKY/WX    TMP DP  RH WIND       PRES   REMARKS
ABERDEEN       CLEAR     23  19  85 N8        30.20R WCI  14
WATERTOWN      CLOUDY    28  22  78 N23G30    30.12R WCI  14
$$

SDZ017-020-022-023-036>040-048>070-170400-
SOUTHEAST SOUTH DAKOTA

CITY           SKY/WX    TMP DP  RH WIND       PRES   REMARKS
SIOUX FALLS    CLOUDY    30  26  85 N14G26    30.08R WCI  19
HURON          CLOUDY    32  24  72 N13       30.17R WCI  22
CHAMBERLAIN      N/A     32  24  72 NE14      30.18R WCI  22
MITCHELL       CLOUDY    32  25  75 N23G32    30.17R WCI  19
YANKTON        CLOUDY    32  27  80 NW17      30.14R WCI  21
$$

ABBREVIATIONS USED IN REMARKS
   TC - TEMPERATURE IN CELSIUS
  WCI - WIND CHILL INDEX
   HX - HEAT INDEX
  VSB - VISIBILITY




USA.gov is the U.S. government's official web portal to all federal, state and local government web resources and services.